Regional Weather Roundup
Issued by NWS

Home | Current Version | Previous Version | Text Only | Print | Product List | Glossary On
Versions: 1 2 3 4 5 6 7 8 9 10 11 12 13 14 15 16 17 18 19 20 21 22 23 24 25 26 27 28 29 30 31 32 33 34 35 36 37 38 39 40 41 42 43 44 45 46 47 48 49 50
000
ASUS45 KTFX 281119
RWRMT
MONTANA HOURLY WEATHER ROUNDUP
NATIONAL WEATHER SERVICE GREAT FALLS MT
519 AM MDT THU AUG 28 2014

NOTE: "FAIR" INDICATES FEW OR NO CLOUDS BELOW 12000 FEET WITH NO
SIGNIFICANT WEATHER AND/OR OBSTRUCTIONS TO VISIBILITY.

* THESE STATIONS ARE NOT UNDER NWS QUALITY CONTROL. THEY DO NOT
   REPORT WEATHER SUCH AS PRECIPITATION OR FOG.

MTZ001>007-043-281200-
WEST OF THE DIVIDE
CITY           SKY/WX    TMP DP  RH WIND       PRES   REMARKS
KALISPELL      CLEAR     48  46  93 CALM      29.99S
MISSOULA       CLEAR     52  46  80 CALM      30.08R
BUTTE          PTCLDY    45  41  86 SE5       30.20S
MULLAN PASS    PTCLDY    59  41  51 VRB7      30.16S
* LINCOLN      N/A       42  41  96 N1         N/A
* LOOKOUT PASS N/A       56  44  64 S1         N/A
* POLSON       N/A       59  42  53 SE1        N/A
* RONAN APT    PTCLDY    50  45  83 N/A        N/A
* SEELEY LAKE  N/A       42  40  93 NE1        N/A
* THOMP F APT  PTCLDY    49  40  71 NE3        N/A
$$

MTZ008-052>055-281200-
SOUTHWEST MONTANA
CITY           SKY/WX    TMP DP  RH WIND       PRES   REMARKS
BOZEMAN        CLEAR     48  43  83 SE6       30.13S
DILLON         CLEAR     48  43  83 SW10      30.17S
W YELLOWSTONE  CLEAR     36  36 100 CALM      30.30S
* THREE FORKS  CLEAR     48  32  54 N/A        N/A
* BOULDER HILL N/A       56  38  51 SW8        N/A
* MONIDA PASS  N/A       46  39  77 N1         N/A
* RAYNOLDS PAS N/A       47  24  40 SE11       N/A
* WHITEHALL    N/A       49  46  89 N4         N/A
* WISE RIVER   N/A       43  40  89 W4         N/A
$$

MTZ009>010-012-014-046-048-049-054-281200-
EAST SLOPES AND CENTRAL MONTANA
CITY           SKY/WX    TMP DP  RH WIND       PRES   REMARKS
CUT BANK       PTCLDY    57  45  64 W5        29.99R
GREAT FALLS    CLEAR     57  46  67 S10       30.00R
HELENA         PTCLDY    55  46  72 CALM      30.08R
MALMSTROM AFB  CLEAR     57  48  72 SW13      30.00S
* CONRAD       CLEAR     54  50  86 SW5        N/A
* EAST GLACIER N/A       57  41  55 NE4        N/A
* MONARCH      N/A       49  41  74 S6         N/A
* PENDROY      N/A       59  42  53 NW7        N/A
* ROGERS PASS  N/A       55  41  59 NW3        N/A
* SAINT MARY   N/A       66  42  42 S4G12      N/A
* SWEET GRASS  N/A       63  43  48 W13        N/A
* WHITE SULPH  N/A       49  43  80 E9         N/A
$$

MTZ011-013-016-021-035-040-045-047-050-051-281200-
NORTH CENTRAL MONTANA
CITY           SKY/WX    TMP DP  RH WIND       PRES   REMARKS
HAVRE          CLEAR     55  50  83 W7        29.92R
LEWISTOWN      CLEAR     52  45  77 SE6       30.04S
* CHINOOK      CLEAR     54  54 100 CALM      29.91S
* FORT BENTON  CLEAR     61  48  62 SW8       29.96R
* CHESTER      N/A       51  46  83 N/A        N/A
* DENTON       N/A       55  48  77 SE4        N/A
* GEYSER       N/A       55  44  67 S4         N/A
* JUDITH GAP   N/A       53  46  77 S7         N/A
* LOMA         N/A       60  49  67 W8         N/A
$$

MTZ017>020-022>027-061-062-281200-
NORTHEAST MONTANA
CITY           SKY/WX    TMP DP  RH WIND       PRES   REMARKS
GLASGOW        PTCLDY    57  54  90 E9        29.89S
GLENDIVE       CLEAR     57  57 100 S8        29.94F
JORDAN         CLEAR     55  54  96 W6        29.93F
SIDNEY         CLEAR     55  55 100 CALM      29.91F
WOLF POINT     CLEAR     52  48  86 CALM      29.90S
* BEAVER HILL  N/A       63  57  81 S11        N/A
* CIRCLE       N/A       56  51  83 N/A        N/A
* LINDSAY DVD  N/A       57  52  83 W2         N/A
* NAVAJO       N/A       59  49  70 SW11       N/A
$$

MTZ028>042-056>058-281200-
SOUTHCENTRAL AND SOUTHEAST MONTANA
CITY           SKY/WX    TMP DP  RH WIND       PRES   REMARKS
BAKER          FOG       55  54  96 SE5       29.97F
BILLINGS       PTCLDY    61  46  58 SW15      30.03S
LIVINGSTON     CLEAR     48  43  83 NW6       30.11S
MILES CITY     CLEAR     59  55  87 SE5       29.95S
* LAUREL APT   CLEAR     55  43  64 N/A        N/A
* ROUNDUP APT  CLEAR     55  46  72 S13        N/A
* ALZADA       N/A       56  55  96 E1         N/A
* HYSHAM       N/A       63  47  56 W8         N/A
* LAME DEER    N/A       64  48  56 W9         N/A
* REED POINT   N/A       50  46  86 W6         N/A
* ROSCOE HILL  N/A       62  30  30 S8         N/A
$$

REGIONAL REPORTS...DAKOTAS
CITY           SKY/WX    TMP DP  RH WIND       PRES   REMARKS
WILLISTON      CLEAR     59  57  93 SW5       29.90S
DICKINSON      FOG       55  54  96 SE8       29.94F
BEACH          N/A       57  57 100 S8        29.95F
CROSBY         CLEAR     59  59 100 SW12      29.88S
TIOGA          CLEAR     57  57 100 S5        29.94S
WATFORD CITY   CLEAR     57  57 100 CALM      29.89F
BISMARCK       MOCLDY    61  57  87 CALM      29.95F
GRAND FORKS    MOCLDY    61  57  87 SE8       29.98F
FARGO          CLOUDY    66  59  78 SE9       30.00S
BUFFALO SD     MOCLDY    57  55  93 CALM      29.93S
RAPID CITY     CLOUDY    63  59  87 N5        30.01F
$$

REGIONAL REPORTS...WYOMING/IDAHO/WASHINGTON
CITY           SKY/WX    TMP DP  RH WIND       PRES   REMARKS
GILLETTE       CLOUDY    61  54  78 SW6       30.06S
SHERIDAN       PTCLDY    52  45  77 CALM      30.05S
CODY           CLEAR     55  45  69 S5        30.14S
YELLOWSTONE LA PTCLDY    37  36  96 NW3       30.38S
SALMON         CLEAR     48  46  93 CALM      30.17R
MULLAN PASS    PTCLDY    59  41  51 VRB7      30.16S
SAND POINT     MOCLDY    52  52 100 CALM      29.94S
SPOKANE        FAIR      66  46  49 S10       29.94S
$$

REGIONAL REPORTS...ALBERTA
CITY           SKY/WX    TMP DP  RH WIND       PRES   REMARKS
CALGARY        MOCLDY    54  48  80 N12       30.02R
LETHBRIDGE     CLEAR     59  52  78 NW23G30   29.94R
MEDICINE HAT   CLEAR     59  52  78 S13       29.84F
EDMONTON       MOCLDY    54  50  86 W8        29.94S
WATERTON GATE  N/A       63  45  52 SW9        N/A
CARDSTON       N/A       64  46  52 SW6        N/A
MILK RIVER     N/A       54  46  74 W7         N/A
$$

REGIONAL REPORTS...SASKATCHEWAN
CITY           SKY/WX    TMP DP  RH WIND       PRES   REMARKS
SWIFT CURRENT  CLEAR     57  50  78 S13       29.84F
MOOSE JAW      N/A       57  54  90 W7        29.84R
REGINA         N/A       52  50  93 S7        29.82S
VAL MARIE      N/A       50  48  93 SW3        N/A
ASSINIBOIA     N/A       54  50  86 W2         N/A
CORONACH       N/A       52  48  86 SE3        N/A

$$



USA.gov is the U.S. government's official web portal to all federal, state and local government web resources and services.